THOR ABLESTAR DEB, 715

Orbit data source: Space-Track

THOR ABLESTAR DEB, 715 is space debris in LEO originally from a launch on Thu, 05 Dec 1963 UTC launched from the Air Force Western Test Range (AFWTR). Debris objects in space refer to the collection of defunct objects orbiting the Earth. Examples of debris include non-operational satellites, rocket bodies, and fragments generated from explosions, collisions, or faulty payload assembly.

Loading next visibility...
THOR ABLESTAR DEB details
Identifier
715, 1963-049E
Orbit
LEO
Last TLE update18 hours ago
Origin
Flag of USUSN BuWeps (US)
ManufacturerUnknown
MissionSpacecraft
Bus & MotorUnknown
MassUnknown
Launch date (UTC)
1963-12-05 (61 years ago)
Launch vehicleUnknown
Launch site
Air Force Western Test Range (AFWTR)
Object type
Payload
Rocket body
Debris
Shape & HBRUnknown
Radar Cross SectionSmall (<0.1 m²)

Expand to show TLE details & history

TLE from 18 hours ago
0 THOR ABLESTAR DEB
1 00715U 63049E   24355.77701806  .00001284  00000-0  13432-2 0  9990
2 00715  89.9117  82.7903 0028636   0.5606 169.1941 13.74468315 28701
Epoch: 2024-12-20T18:38Z
Definitive object data (Epoch: 2024-12-20T18:38:54.36Z)
Latitude10.12888°
Longitude-106.78956°
Altitude1,006.532 km
Speed7.339 km/s
True Right ascension17h 31m 05s
True Declination10° 04' 17"
Sunlit
Object was in daylight at TLE epoch
Visualization TLE readout
Latitude-47.79401°
Longitude-106.68387°
Altitude1,015.887 km
Speed7.336 km/s
Apparent Right ascension20h 26m 59s
Apparent Declination-53° 25' 36"
Sunlit
Object is in daylight
Visualization observer readout
Local Sidereal Time11:25:55
Azimuth129.39° SE
Elevation-57.138°
Doppler factor1
Orbital elements
Apogee altitude1,001.659 km
Perigee altitude959.514 km
Semi-major axis7,358.724 km
Eccentricity0.0028636
Inclination89.9117°
RAAN82.7903°
Arg. of periapsis0.5606°
True anomaly169.25541°
Mean anomaly169.1941°
Eccentric anomaly169.22477°
Mean motion3.43827 °/min
BSTAR0.0013432
Orbital period104.7 mins
Loading maneuver chart data...
Loading historical data...
Loading historical data...
Loading historical data...
Loading historical data...
Loading historical data...
Loading historical data...
Loading historical data...

THOR ABLESTAR DEB Visibility forecast

Observer location: undefined°, undefined

Span
Click to sort rows by Start time (UTC) header in descending order
Start Az.
Max El. time (UTC)
Max El. Az.
Max El.
End time (UTC)
End Az.
9 mins2024-12-21 17:08:07.352Z31.257° NE2024-12-21 17:13:07.352Z85.382° E21.096°2024-12-21 17:17:07.352Z127.976° SE
10 mins2024-12-21 18:53:07.352Z347.606° N2024-12-21 18:58:07.352Z263.28° W38.152°2024-12-21 19:03:07.352Z205.035° SW
6 mins2024-12-22 04:56:07.352Z99.254° ESE2024-12-22 04:58:07.352Z77.382° E16.354°2024-12-22 05:02:07.352Z35.432° NE
10 mins2024-12-22 06:38:07.352Z190.074° SSW2024-12-22 06:42:07.352Z248.214° W42.494°2024-12-22 06:48:07.352Z351.942° N
|